Flag for Germany Weather past 2 weeks in Erkrath, North Rhine-Westphalia, Germany

43 °F

Scattered clouds.

Feels Like: 36 °F
Forecast: 43 / 52 °F
Wind: 12 mph from West

Location: Duesseldorf

Current Time: Nov 28, 2015 at 9:40:02 AM

Latest Report: Nov 28, 2015 at 9:20 AM

Visibility: N/A

Pressure: 29.86 "Hg

Humidity: 87%

Dew point: 39 °F

Location of ErkrathLocation

Historic Weather in Erkrath — Graph


Erkrath temperature yesterday

Maximum temperature yesterday: 45 °F (at 2:20 PM)
Minimum temperature yesterday: 32 °F (at 7:50 AM)
Average temperature yesterday: 38 °F

Past Weeks' High & Low Weather Summary

High61 °F (Nov 15, 11:50 AM)100% (Nov 14, 10:50 PM)30.30 "Hg (Nov 14, 10:50 PM)
Low32 °F (Nov 22, 7:20 AM)59% (Nov 18, 3:20 AM)29.39 "Hg (Nov 21, 7:20 AM)
Average46 °F83%29.90 "Hg
* Reported Nov 13 8:20 AM — Nov 28 8:20 AM, Erkrath, Weather by CustomWeather, © 2015

Note: Actual official high and low records may vary slightly from our data, if they occured in-between our weather recording intervals... More about our weather records


Erkrath weather history for previous 24 hours

Time TempWeatherWind HumidityBarometerVisibility
8:20 AM
Sat, Nov 28
43 °FSprinkles. Partly sunny.9 mph87%29.83 "HgN/A
7:20 AM43 °FPartly cloudy.13 mph87%29.80 "HgN/A
6:50 AM43 °FLight rain. Partly cloudy.16 mph93%29.77 "HgN/A
6:20 AM43 °FDrizzle. Mostly cloudy.14 mph93%29.74 "Hg5 mi
5:50 AM41 °FDrizzle. Mostly cloudy.13 mph100%29.71 "Hg4 mi
5:20 AM41 °FDrizzle. Mostly cloudy.13 mph93%29.71 "HgN/A
4:50 AM39 °FDrizzle. Mostly cloudy.14 mph93%29.71 "Hg5 mi
4:20 AM37 °FPartly cloudy.16 mph100%29.71 "Hg5 mi
3:50 AM37 °FDrizzle. Low clouds.17 mph93%29.71 "Hg2 mi
3:20 AM37 °FDrizzle. Low clouds.17 mph93%29.71 "Hg2 mi
2:50 AM37 °FDrizzle. Low clouds.17 mph87%29.71 "Hg4 mi
2:20 AM37 °FOvercast.16 mph81%29.71 "HgN/A
1:50 AM37 °FPassing clouds.15 mph81%29.74 "HgN/A
12:50 AM37 °FOvercast.16 mph81%29.77 "HgN/A
11:50 PM
Fri, Nov 27
37 °FPassing clouds.18 mph81%29.80 "HgN/A
11:20 PM37 °FPassing clouds.16 mph81%29.80 "HgN/A
10:50 PM37 °FPassing clouds.14 mph81%29.80 "HgN/A
9:50 PM37 °FPassing clouds.15 mph81%29.83 "HgN/A
9:20 PM37 °FPassing clouds.15 mph81%29.86 "HgN/A
8:50 PM37 °FPassing clouds.14 mph81%29.86 "HgN/A
8:20 PM39 °FPassing clouds.13 mph81%29.89 "HgN/A
7:50 PM39 °FOvercast.16 mph81%29.89 "HgN/A
7:20 PM41 °FOvercast.18 mph76%29.89 "HgN/A
6:20 PM41 °FPassing clouds.13 mph81%29.89 "HgN/A
5:50 PM41 °FPassing clouds.13 mph81%29.92 "HgN/A
5:20 PM43 °FPassing clouds.12 mph76%29.92 "HgN/A
4:50 PM43 °FPassing clouds.9 mph76%29.92 "HgN/A
4:20 PM41 °FScattered clouds.10 mph81%29.92 "HgN/A
3:50 PM43 °FPassing clouds.10 mph76%29.95 "HgN/A
3:20 PM45 °FSunny.13 mph71%29.95 "Hg10 mi
2:50 PM45 °FSunny.14 mph71%29.95 "Hg10 mi
2:20 PM45 °FSunny.15 mph71%29.98 "Hg10 mi
1:50 PM43 °FSunny.13 mph76%29.98 "Hg10 mi
1:20 PM43 °FSunny.12 mph76%30.01 "Hg10 mi
12:50 PM43 °FPassing clouds.10 mph76%30.01 "HgN/A
12:20 PM41 °FPassing clouds.13 mph81%30.04 "HgN/A
11:50 AM39 °FPassing clouds.12 mph87%30.07 "Hg6 mi
11:20 AM39 °FPassing clouds.10 mph87%30.07 "Hg5 mi
10:50 AM37 °FScattered clouds.10 mph93%30.07 "Hg4 mi
10:20 AM36 °FFog.12 mph100%30.07 "Hg2 mi
9:50 AM36 °FFog.12 mph93%30.09 "Hg2 mi
9:20 AM34 °FFog.10 mph100%30.09 "Hg1 mi
Weather by CustomWeather, © 2015

See weather overviewHow to use our weather pages